Hourly Data Report for February 15, 2005

TORONTO CITY
ONTARIO

43°40'00.000" N
79°24'00.000" W
112.50 m
6158355
71508
XTO

Download Data

Hourly Data (February 2005)
Hourly Data Report for February 15, 2005
TIME
LST
Temp Definition
°C
Dew Point Definition
°C
Rel Hum Definition
%
Precip. Amount Definition
mm

Wind Dir Definition
10's deg

Wind Spd Definition
km/h
Visibility Definition
km
Stn Press Definition
kPa
Hmdx Definition


Wind Chill Definition


Weather Definition


00:00 3.7 0.9 82   LegendMM LegendMM   99.36     LegendNANA
01:00 3.3 0.5 82   LegendMM LegendMM   99.51     LegendNANA
02:00 3.3 0.5 82   LegendMM LegendMM   99.62     LegendNANA
03:00 3.1 0.6 84   LegendMM LegendMM   99.73     LegendNANA
04:00 3.3 0.4 81   LegendMM LegendMM   99.88     LegendNANA
05:00 3.4 0.7 82   LegendMM LegendMM   99.92     LegendNANA
06:00 3.2 0.8 84   LegendMM LegendMM   100.01     LegendNANA
07:00 2.9 1.3 89   LegendMM LegendMM   100.04     LegendNANA
08:00 2.9 1.3 89   LegendMM LegendMM   100.01     LegendNANA
09:00 3.1 1.5 89   LegendMM LegendMM   99.98     LegendNANA
10:00 4.3 2.0 85   LegendMM LegendMM   99.99     LegendNANA
11:00 6.4 2.6 77   LegendMM LegendMM   99.99     LegendNANA
12:00 7.6 3.0 73   LegendMM LegendMM   99.95     LegendNANA
13:00 7.4 3.4 76   LegendMM LegendMM   99.86     LegendNANA
14:00 6.1 4.2 88   LegendMM LegendMM   99.88     LegendNANA
15:00 5.5 4.5 93   LegendMM LegendMM   99.86     LegendNANA
16:00 5.0 4.4 96   LegendMM LegendMM   99.89     LegendNANA
17:00 5.4 5.0 97   LegendMM LegendMM   99.91     LegendNANA
18:00 5.3 4.9 97   LegendMM LegendMM   99.90     LegendNANA
19:00 5.6 5.0 96   LegendMM LegendMM   99.81     LegendNANA
20:00 5.1 4.3 95   LegendMM LegendMM   99.82     LegendNANA
21:00 4.8 4.3 97   LegendMM LegendMM   99.82     LegendNANA
22:00 4.9 4.4 97   LegendMM LegendMM   99.77     LegendNANA
23:00 3.9 3.0 94   LegendMM LegendMM   99.76     LegendNANA

Notes on Data Quality.

Legend

  • E = Estimated
  • M = Missing
  • NA = Not Available*
  • [empty] = Indicates an unobserved value
Date modified: